| time (UTC) | temp F | wind direction | speed MPH | gust MPH | rain 1hr in | rain 24hr in | rain mn in | humidity % | barometer mb |
| 20260502213418 | 64 | 0.0 | 0.0 | 0.00 | 0.00 | 0.00 | 41 | 1017.4 | |
| 20260502212413 | 65 | 0.0 | 0.0 | 0.00 | 0.00 | 0.00 | 39 | 1017.4 | |
| 20260502211418 | 66 | 0.0 | 0.0 | 0.00 | 0.00 | 0.00 | 38 | 1017.6 | |
| 20260502210417 | 66 | 0.0 | 0.0 | 0.00 | 0.00 | 0.00 | 38 | 1017.7 | |
| 20260502205414 | 66 | 0.0 | 0.0 | 0.00 | 0.00 | 0.00 | 38 | 1017.6 | |
| 20260502204414 | 66 | 0.0 | 0.0 | 0.00 | 0.00 | 0.00 | 38 | 1017.7 | |
| 20260502203413 | 67 | 0.0 | 0.0 | 0.00 | 0.00 | 0.00 | 37 | 1017.7 | |
| 20260502202414 | 67 | 0.0 | 0.0 | 0.00 | 0.00 | 0.00 | 38 | 1017.7 | |
| 20260502201414 | 67 | 0.0 | 0.0 | 0.00 | 0.00 | 0.00 | 37 | 1017.8 | |
| 20260502200418 | 68 | 0.0 | 0.0 | 0.00 | 0.00 | 0.00 | 36 | 1017.7 | |
| 20260502195417 | 68 | 0.0 | 0.0 | 0.00 | 0.00 | 0.00 | 36 | 1017.8 | |
| 20260502194418 | 68 | 0.0 | 0.0 | 0.00 | 0.00 | 0.00 | 35 | 1017.7 | |
| 20260502192414 | 70 | 0.0 | 0.0 | 0.00 | 0.00 | 0.00 | 34 | 1017.7 | |
| 20260502191418 | 70 | 0.0 | 0.0 | 0.00 | 0.00 | 0.00 | 34 | 1017.8 | |
| 20260502185416 | 71 | 0.0 | 0.0 | 0.00 | 0.00 | 0.00 | 32 | 1017.7 | |
| 20260502183414 | 72 | 0.0 | 0.0 | 0.00 | 0.00 | 0.00 | 31 | 1017.7 | |
| 20260502182413 | 72 | 0.0 | 0.0 | 0.00 | 0.00 | 0.00 | 30 | 1017.6 | |
| 20260502181415 | 73 | 0.0 | 0.0 | 0.00 | 0.00 | 0.00 | 30 | 1017.5 | |
| 20260502180419 | 74 | 0.0 | 0.0 | 0.00 | 0.00 | 0.00 | 29 | 1017.4 | |
| 20260502170414 | 78 | 0.0 | 0.0 | 0.00 | 0.00 | 0.00 | 25 | 1017.6 | |
| 20260502163414 | 78 | 0.0 | 0.0 | 0.00 | 0.00 | 0.00 | 25 | 1018.0 | |
| 20260502162414 | 79 | 0.0 | 0.0 | 0.00 | 0.00 | 0.00 | 24 | 1018.0 | |
| 20260502161413 | 79 | 0.0 | 0.0 | 0.00 | 0.00 | 0.00 | 24 | 1018.3 | |
| 20260502160418 | 80 | 0.0 | 0.0 | 0.00 | 0.00 | 0.00 | 23 | 1018.3 | |
| 20260502151415 | 80 | 0.0 | 0.0 | 0.00 | 0.00 | 0.00 | 24 | 1019.0 | |
| 20260502150413 | 80 | 0.0 | 0.0 | 0.00 | 0.00 | 0.00 | 25 | 1019.1 | |
| 20260502130417 | 80 | 0.0 | 0.0 | 0.00 | 0.00 | 0.00 | 26 | 1020.5 | |
| 20260502123419 | 79 | 0.0 | 0.0 | 0.00 | 0.00 | 0.00 | 31 | 1020.9 | |
| 20260502121419 | 80 | 0.0 | 0.0 | 0.00 | 0.00 | 0.00 | 25 | 1021.2 | |
| 20260502120413 | 79 | 0.0 | 0.0 | 0.00 | 0.00 | 0.00 | 26 | 1021.3 | |
| 20260502115418 | 80 | 0.0 | 0.0 | 0.00 | 0.00 | 0.00 | 27 | 1021.5 | |
| 20260502114413 | 80 | 0.0 | 0.0 | 0.00 | 0.00 | 0.00 | 26 | 1021.6 | |
| 20260502113414 | 80 | 0.0 | 0.0 | 0.00 | 0.00 | 0.00 | 26 | 1021.7 | |
| 20260502112415 | 78 | 0.0 | 0.0 | 0.00 | 0.00 | 0.00 | 28 | 1021.8 | |
| 20260502111414 | 77 | 0.0 | 0.0 | 0.00 | 0.00 | 0.00 | 27 | 1021.9 | |
| 20260502110414 | 78 | 0.0 | 0.0 | 0.00 | 0.00 | 0.00 | 26 | 1022.1 | |
| 20260502105413 | 79 | 0.0 | 0.0 | 0.00 | 0.00 | 0.00 | 28 | 1022.2 | |
| 20260502104419 | 79 | 0.0 | 0.0 | 0.00 | 0.00 | 0.00 | 27 | 1022.4 | |
| 20260502102419 | 78 | 0.0 | 0.0 | 0.00 | 0.00 | 0.00 | 27 | 1022.5 | |
| 20260502101415 | 78 | 0.0 | 0.0 | 0.00 | 0.00 | 0.00 | 27 | 1022.6 | |
| 20260502091415 | 76 | 0.0 | 0.0 | 0.00 | 0.00 | 0.00 | 31 | 1023.2 | |
| 20260502090418 | 76 | 0.0 | 0.0 | 0.00 | 0.00 | 0.00 | 31 | 1023.3 | |
| 20260502071414 | 71 | 0.0 | 0.0 | 0.00 | 0.00 | 0.00 | 39 | 1023.9 | |
| 20260502070418 | 70 | 0.0 | 0.0 | 0.00 | 0.00 | 0.00 | 38 | 1024.0 | |
| 20260502065414 | 69 | 0.0 | 0.0 | 0.00 | 0.00 | 0.00 | 39 | 1023.9 | |
| 20260502064417 | 68 | 0.0 | 0.0 | 0.00 | 0.00 | 0.00 | 40 | 1024.0 | |
| 20260502063414 | 67 | 0.0 | 0.0 | 0.00 | 0.00 | 0.00 | 41 | 1024.1 | |
| 20260502062419 | 66 | 0.0 | 0.0 | 0.00 | 0.00 | 0.00 | 46 | 1024.1 | |
| 20260502061414 | 65 | 0.0 | 0.0 | 0.00 | 0.00 | 0.00 | 47 | 1024.2 | |
| 20260502060418 | 64 | 0.0 | 0.0 | 0.00 | 0.00 | 0.00 | 45 | 1024.2 | |
| 20260502055416 | 64 | 0.0 | 0.0 | 0.00 | 0.00 | 0.00 | 47 | 1024.2 | |
| 20260502054414 | 63 | 0.0 | 0.0 | 0.00 | 0.00 | 0.00 | 47 | 1024.2 | |
| 20260502053414 | 62 | 0.0 | 0.0 | 0.00 | 0.00 | 0.00 | 49 | 1024.2 | |
| 20260502052414 | 61 | 0.0 | 0.0 | 0.00 | 0.00 | 0.00 | 49 | 1024.1 | |
| 20260502051414 | 60 | 0.0 | 0.0 | 0.00 | 0.00 | 0.00 | 51 | 1024.2 | |
| 20260502050417 | 59 | 0.0 | 0.0 | 0.00 | 0.00 | 0.00 | 52 | 1024.3 | |
| 20260502045419 | 59 | 0.0 | 0.0 | 0.00 | 0.00 | 0.00 | 53 | 1024.3 | |
| 20260502044417 | 59 | 0.0 | 0.0 | 0.00 | 0.00 | 0.00 | 53 | 1024.1 | |
| 20260502043419 | 59 | 0.0 | 0.0 | 0.00 | 0.00 | 0.00 | 54 | 1024.1 | |
| 20260502042415 | 57 | 0.0 | 0.0 | 0.00 | 0.00 | 0.00 | 58 | 1024.2 | |
| 20260502041413 | 55 | 0.0 | 0.0 | 0.00 | 0.00 | 0.00 | 61 | 1024.2 | |
| 20260502040414 | 58 | 0.0 | 0.0 | 0.00 | 0.00 | 0.00 | 56 | 1024.1 | |
| 20260502035414 | 54 | 0.0 | 0.0 | 0.00 | 0.00 | 0.00 | 65 | 1024.2 | |
| 20260502034419 | 54 | 0.0 | 0.0 | 0.00 | 0.00 | 0.00 | 64 | 1024.2 | |
| 20260502033413 | 55 | 0.0 | 0.0 | 0.00 | 0.00 | 0.00 | 63 | 1024.3 | |
| 20260502032418 | 55 | 0.0 | 0.0 | 0.00 | 0.00 | 0.00 | 62 | 1024.2 | |
| 20260502031418 | 54 | 0.0 | 0.0 | 0.00 | 0.00 | 0.00 | 65 | 1024.4 | |
| 20260502030418 | 54 | 0.0 | 0.0 | 0.00 | 0.00 | 0.00 | 65 | 1024.4 | |
| 20260502024415 | 53 | 0.0 | 0.0 | 0.00 | 0.00 | 0.00 | 65 | 1024.4 | |
| 20260502023414 | 54 | 0.0 | 0.0 | 0.00 | 0.00 | 0.00 | 65 | 1024.4 | |
| 20260502022417 | 55 | 0.0 | 0.0 | 0.00 | 0.00 | 0.00 | 62 | 1024.4 | |
| 20260502021414 | 56 | 0.0 | 0.0 | 0.00 | 0.00 | 0.00 | 61 | 1024.4 | |
| 20260502020414 | 57 | 0.0 | 0.0 | 0.00 | 0.00 | 0.00 | 60 | 1024.3 | |
| 20260502015414 | 56 | 0.0 | 0.0 | 0.00 | 0.00 | 0.00 | 62 | 1024.3 | |
| 20260502014418 | 56 | 0.0 | 0.0 | 0.00 | 0.00 | 0.00 | 61 | 1024.3 | |
| 20260502013418 | 56 | 0.0 | 0.0 | 0.00 | 0.00 | 0.00 | 60 | 1024.2 | |
| 20260502011414 | 55 | 0.0 | 0.0 | 0.00 | 0.00 | 0.00 | 64 | 1024.5 | |
| 20260502010414 | 55 | 0.0 | 0.0 | 0.00 | 0.00 | 0.00 | 61 | 1024.5 | |
| 20260502005417 | 57 | 0.0 | 0.0 | 0.00 | 0.00 | 0.00 | 58 | 1024.3 | |
| 20260502004418 | 56 | 0.0 | 0.0 | 0.00 | 0.00 | 0.00 | 60 | 1024.4 | |
| 20260502003418 | 58 | 0.0 | 0.0 | 0.00 | 0.00 | 0.00 | 57 | 1024.3 | |
| 20260502002413 | 57 | 0.0 | 0.0 | 0.00 | 0.00 | 0.00 | 57 | 1024.4 | |
| 20260502001414 | 58 | 0.0 | 0.0 | 0.00 | 0.00 | 0.00 | 57 | 1024.4 | |
| 20260502000416 | 58 | 0.0 | 0.0 | 0.00 | 0.00 | 0.00 | 56 | 1024.5 | |
| 20260501234414 | 58 | 0.0 | 0.0 | 0.00 | 0.00 | 0.00 | 57 | 1024.6 | |
| 20260501233416 | 58 | 0.0 | 0.0 | 0.00 | 0.00 | 0.00 | 54 | 1024.6 | |
| 20260501232413 | 59 | 0.0 | 0.0 | 0.00 | 0.00 | 0.00 | 55 | 1024.6 | |
| 20260501231413 | 58 | 0.0 | 0.0 | 0.00 | 0.00 | 0.00 | 55 | 1024.6 | |
| 20260501230417 | 59 | 0.0 | 0.0 | 0.00 | 0.00 | 0.00 | 55 | 1024.7 | |
| 20260501225413 | 59 | 0.0 | 0.0 | 0.00 | 0.00 | 0.00 | 56 | 1024.6 | |
| 20260501224418 | 59 | 0.0 | 0.0 | 0.00 | 0.00 | 0.00 | 55 | 1024.7 | |
| 20260501223413 | 60 | 0.0 | 0.0 | 0.00 | 0.00 | 0.00 | 54 | 1024.7 | |
| 20260501222419 | 60 | 0.0 | 0.0 | 0.00 | 0.00 | 0.00 | 54 | 1024.6 | |
| 20260501221413 | 60 | 0.0 | 0.0 | 0.00 | 0.00 | 0.00 | 54 | 1024.7 | |
| 20260501220414 | 60 | 0.0 | 0.0 | 0.00 | 0.00 | 0.00 | 52 | 1024.7 | |
| 20260501215414 | 61 | 0.0 | 0.0 | 0.00 | 0.00 | 0.00 | 52 | 1024.8 | |
| 20260501214414 | 61 | 0.0 | 0.0 | 0.00 | 0.00 | 0.00 | 51 | 1024.7 |